Wetbulb
50.26 50.05 49.71 49.67 49.56 49.81 50.46 50.97 51.28 51.58 51.95 52.03 51.13 50.64 50.49 50.39 50.74 55.46 54.33 56.60 54.73 46.98 48.78 52.76 52.66 49.11 49.16 47.53 39.44 45.22 41.47 41.08 36.19 35.02 32.55 31.96 28.70 31.80 32.46 37.15 32.43 28.50 27.12 24.21 29.00 26.98 22.83 43.62 42.48 33.85 37.57 42.96 43.46 41.75
49.71 49.42 49.22 49.03 49.29 49.65 50.03 50.25 50.63 51.03 51.42 53.03 51.50 50.87 50.55 50.43 51.14 52.20 53.43 56.51 57.68 52.37 50.35 53.17 52.74 53.52 52.71 52.47 48.90 47.01 43.05 46.09 44.16 37.57 33.83 34.96 32.76 34.90 32.79 27.39 40.18 31.71 34.71 31.38 32.38 30.74 39.98 43.55 42.02 43.65 44.60 43.36 41.23 40.71
49.32 49.14 48.92 48.90 48.99 49.31 49.62 49.66 49.87 50.63 50.89 51.62 52.18 51.39 50.99 50.50 51.05 52.42 54.92 55.50 55.91 47.60 48.85 49.72 49.09 52.83 54.79 54.26 55.00 45.71 45.65 50.11 48.03 48.58 39.74 39.28 30.52 36.00 28.03 31.45 32.41 39.97 43.45 34.31 36.10 41.03 42.39 42.97 44.67 44.83 43.92 42.29 43.06 44.01
47.94 48.53 48.42 48.55 48.67 49.03 48.81 48.89 49.28 50.01 50.59 50.80 51.44 49.96 50.66 50.81 50.77 52.25 54.23 55.32 52.99 47.23 36.25 45.54 52.99 51.08 54.08 54.60 54.69 53.93 52.06 52.04 50.30 44.26 37.77 35.87 31.41 42.19 32.97 35.83 33.46 38.73 42.19 39.57 35.86 40.93 42.19 43.99 44.67 44.25 43.38 43.80 44.16 45.11
46.71 46.80 47.47 48.21 48.46 48.93 48.35 48.19 48.57 49.22 49.82 48.41 47.96 48.21 50.41 50.55 50.57 55.32 55.32 54.73 54.57 50.46 38.41 39.58 50.39 51.41 52.97 52.90 52.51 53.11 51.68 49.52 44.24 37.65 34.78 34.15 34.88 37.33 33.05 34.37 33.45 42.88 39.45 34.56 31.97 41.94 41.44 41.98 43.37 45.05 44.02 43.52 43.27 42.22
46.33 46.41 46.64 46.78 47.45 48.41 48.81 47.90 47.90 48.43 47.16 47.51 48.46 49.53 50.59 49.93 50.10 55.02 50.32 54.03 52.18 54.76 43.58 36.58 47.86 47.78 50.03 51.15 51.21 50.50 50.10 48.93 47.32 40.63 35.13 40.68 47.38 39.37 33.44 32.19 41.06 44.75 45.62 44.48 41.60 45.02 44.03 43.62 43.73 44.60 43.55 43.62 42.36 39.67
45.89 46.16 46.32 46.46 46.66 46.93 47.97 48.05 47.78 47.42 46.66 47.74 48.97 49.84 50.39 48.96 51.95 48.97 47.12 49.62 49.17 52.27 40.22 36.73 38.86 44.64 46.44 48.83 46.70 48.30 48.55 46.12 46.00 41.63 37.50 35.56 38.79 42.82 33.88 32.13 41.49 44.34 44.87 44.60 45.43 43.87 41.11 42.06 40.63 44.34 43.51 41.46 41.10 38.02
45.62 45.77 45.78 46.05 46.43 46.39 46.39 47.32 47.88 48.08 47.49 47.47 49.20 49.48 49.01 47.29 48.71 50.00 50.45 50.20 50.01 49.62 43.96 37.10 36.91 36.48 46.32 36.76 37.65 43.89 37.70 42.56 44.78 40.82 38.67 36.00 38.20 35.37 33.80 40.80 43.57 44.95 44.84 43.69 43.53 43.59 42.49 42.56 43.27 41.24 40.65 37.15 35.30 34.03
45.34 45.50 45.46 45.92 46.07 46.34 46.35 46.61 47.38 48.23 48.50 48.47 48.63 49.64 50.91 49.83 45.63 48.83 48.32 48.73 53.15 48.61 37.96 34.06 32.53 31.44 43.25 39.48 37.80 37.46 41.63 34.04 40.41 34.96 36.05 38.99 34.52 34.58 38.94 41.02 42.18 42.86 41.87 41.82 43.25 43.35 43.43 42.66 42.40 37.13 35.78 34.76 33.21 32.27
45.07 45.30 45.25 45.73 45.85 46.05 46.21 46.52 47.20 47.88 48.16 48.46 49.38 46.60 39.63 42.36 47.13 48.47 49.21 42.55 40.22 39.69 40.40 35.33 37.97 35.78 40.60 35.51 34.42 35.13 34.22 34.06 33.14 34.39 38.25 33.14 34.43 39.05 41.30 42.52 43.03 42.79 44.15 43.93 40.39 39.98 38.79 34.50 34.47 34.19 33.97 33.97 33.24 32.21
45.42 45.47 45.39 45.75 45.41 45.82 46.71 46.86 47.40 47.65 47.68 44.73 39.45 35.87 42.52 46.73 46.07 40.38 37.14 36.91 37.88 34.57 38.74 37.88 36.51 36.19 39.79 33.99 33.66 34.72 32.96 33.14 31.17 30.35 32.97 32.04 31.84 36.26 40.58 41.15 42.27 42.97 43.33 41.83 39.16 38.28 37.13 35.71 34.36 33.84 33.04 31.50 30.57 29.97
45.69 45.54 45.61 45.87 45.41 45.70 46.16 46.52 46.52 45.04 43.23 43.13 42.50 43.92 42.11 38.91 35.37 35.89 34.22 34.03 34.06 33.98 34.72 34.39 35.66 39.25 36.38 41.86 34.48 34.04 33.27 32.76 29.64 35.66 32.40 29.46 32.11 38.80 39.86 40.31 40.96 38.24 37.89 37.63 37.98 36.92 36.58 36.25 35.42 32.58 31.44 30.84 30.76 30.00
45.19 45.36 45.55 45.95 45.16 44.98 45.35 45.39 45.11 44.59 44.56 41.87 37.80 34.58 36.39 32.22 31.28 31.27 29.93 30.90 31.82 32.40 33.83 33.47 32.96 33.68 35.16 36.60 32.77 32.73 31.64 30.58 33.56 30.92 26.83 29.00 37.85 39.18 39.54 36.93 34.32 34.59 32.96 33.29 34.83 35.63 35.33 34.51 33.44 30.63 29.30 30.56 26.64 29.76
45.22 45.11 45.14 45.30 45.62 44.60 44.55 44.55 44.77 45.10 41.33 34.79 33.12 30.30 31.48 30.15 30.72 30.35 31.25 32.05 32.76 32.59 32.77 32.96 32.20 32.56 32.41 32.40 31.84 30.68 31.08 31.42 28.69 24.31 21.46 32.93 37.22 38.43 37.84 35.62 33.40 31.38 29.08 30.18 30.58 30.94 29.99 29.94 29.55 27.57 28.17 26.56 23.76 27.81
44.75 45.32 45.17 44.33 44.40 44.45 44.22 43.93 44.34 43.47 37.65 33.11 33.23 29.20 29.79 31.11 32.02 32.02 32.20 32.40 32.88 34.54 33.50 32.58 32.40 33.45 31.48 30.53 31.11 29.61 27.55 26.42 27.95 27.59 30.75 33.90 35.13 34.77 33.60 33.14 30.78 29.76 26.96 29.20 31.18 30.05 26.45 26.84 27.93 29.87 29.87 29.91 30.09 26.73
43.96 44.70 43.51 44.10 44.23 44.25 44.25 43.51 41.83 40.68 33.41 33.83 32.34 30.50 32.20 32.23 31.85 32.08 32.06 31.90 35.07 33.32 33.68 33.29 31.29 31.28 29.23 29.82 28.12 28.10 27.35 25.89 29.64 31.67 32.84 32.46 32.46 32.73 32.84 32.97 31.82 31.68 30.75 30.76 30.88 31.05 30.18 26.46 25.25 30.06 30.08 29.10 26.51 27.77
43.51 42.27 43.75 42.84 42.93 43.21 43.93 41.00 38.29 33.25 30.03 32.11 30.48 33.50 32.71 32.36 31.21 31.81 32.97 33.14 36.52 33.30 31.63 31.85 28.45 26.43 29.48 27.39 26.98 30.39 28.51 30.19 32.00 31.85 32.13 32.51 32.24 32.16 31.44 31.48 29.81 31.13 31.55 31.45 31.35 31.15 30.89 30.66 27.51 27.78 28.45 31.36 30.62 30.62
42.33 43.34 43.40 43.51 44.28 42.60 40.02 39.92 32.10 31.09 28.56 32.04 31.40 31.39 32.05 32.59 32.46 32.79 33.14 34.04 33.86 31.81 30.68 29.35 30.87 27.53 26.39 24.88 26.48 31.13 30.32 31.01 31.15 31.04 31.05 32.26 32.93 32.68 34.03 32.09 34.04 31.79 31.31 31.23 29.52 30.64 30.62 27.18 29.30 30.22 30.97 31.85 30.81 29.72
42.40 42.98 43.66 43.59 42.70 38.73 34.11 33.36 35.20 28.83 31.07 29.18 30.85 31.44 31.47 31.60 32.50 32.71 32.77 33.30 33.66 33.45 31.89 29.18 27.27 26.45 26.26 28.50 29.74 30.60 30.95 30.14 29.97 30.57 31.41 32.25 32.41 32.21 32.28 32.47 31.74 31.15 30.90 30.78 30.94 29.64 29.88 31.41 30.63 30.44 30.32 29.77 29.54 29.76
41.48 41.47 41.88 41.80 41.61 34.86 31.66 29.91 34.81 29.84 30.11 29.72 31.32 30.96 29.98 29.68 30.86 31.85 32.59 32.59 32.65 31.07 26.56 25.50 25.68 27.71 28.32 30.01 30.74 30.86 31.14 31.45 30.08 28.79 29.60 31.08 31.55 31.81 31.68 30.86 29.95 31.17 30.49 31.27 30.41 27.01 28.11 29.16 29.59 29.95 29.30 26.78 23.41 26.06
40.21 39.59 40.13 40.33 36.48 36.92 30.89 31.54 31.91 29.08 29.93 30.90 31.31 30.50 28.18 30.43 29.88 30.17 30.94 32.20 30.75 24.68 25.33 27.71 27.24 30.45 32.78 30.98 30.73 30.34 31.23 31.71 29.95 28.41 27.84 27.88 29.65 29.35 29.49 30.21 30.70 29.07 27.88 27.11 24.98 27.87 25.78 28.43 31.64 30.08 30.45 31.63 32.96 32.50
37.08 38.94 34.15 35.87 32.53 32.43 28.72 30.50 30.83 29.22 30.42 30.32 30.15 30.93 27.26 26.60 27.19 28.13 30.30 25.87 24.95 26.56 29.64 28.27 29.98 29.52 30.62 31.74 31.83 32.19 32.06 31.52 31.49 29.34 27.91 27.21 27.19 27.42 27.63 27.95 26.56 25.03 25.90 26.80 29.38 30.24 29.45 30.49 30.01 28.33 31.05 32.31 32.85 31.89
36.92 35.39 32.41 31.87 30.15 29.42 25.45 30.40 28.72 30.27 24.28 27.62 29.49 26.79 26.19 26.27 28.02 27.79 26.08 27.19 26.36 30.60 30.43 31.73 32.46 32.38 31.22 31.71 31.24 31.05 31.44 30.90 28.05 29.20 29.90 29.15 28.49 28.34 28.45 28.96 26.99 26.50 28.38 29.31 28.34 29.22 28.75 29.80 28.88 26.31 29.11 31.06 31.09 31.62
36.26 31.75 30.84 29.59 30.65 26.21 29.35 27.39 26.78 24.93 24.68 26.39 25.17 23.04 24.11 26.43 23.98 21.24 17.50 21.25 26.92 29.55 30.13 30.32 30.06 28.29 28.78 30.27 28.75 28.28 28.52 29.28 28.23 27.90 28.66 28.08 27.08 27.93 27.89 27.82 28.29 28.12 28.70 29.23 29.18 29.26 30.04 30.00 26.79 27.63 30.85 30.22 30.94 26.62
26.36 25.90 28.24 25.45 29.05 26.42 21.70 24.60 25.08 21.38 15.70 18.92 16.71 16.73 21.39 20.50 15.11 14.51 16.18 25.99 26.61 26.89 28.24 27.88 28.76 28.73 27.26 25.62 26.43 26.27 26.65 25.33 23.53 22.46 24.19 24.07 21.85 22.32 23.06 24.47 24.88 24.97 24.97 24.20 24.29 24.94 25.23 27.03 29.37 30.06 29.41 29.26 27.85 25.09
22.44 25.53 25.62 25.92 23.04 21.92 22.44 19.77 23.76 21.37 17.92 18.39 17.59 21.89 19.71 16.03 13.02 12.79 23.63 25.49 25.00 25.20 25.81 25.05 22.82 25.23 24.49 25.09 23.24 22.86 23.14 24.14 22.03 19.54 21.27 22.83 23.58 20.82 18.15 17.34 17.03 17.70 20.20 21.24 20.73 20.08 20.34 22.09 23.79 25.86 28.14 27.76 27.12 27.13
22.99 23.94 25.40 28.35 28.49 27.67 26.60 27.16 26.91 24.71 20.75 17.94 18.85 16.80 14.96 10.33 10.37 21.66 24.63 24.29 24.86 25.78 27.50 26.43 25.18 24.00 23.67 23.28 23.63 23.95 22.93 20.18 17.69 20.10 21.50 24.18 21.98 20.04 17.62 15.49 14.80 17.10 18.77 18.85 18.00 17.81 18.45 19.64 21.20 21.88 23.03 24.85 26.31 25.24
25.88 27.15 22.46 26.37 26.38 26.71 22.38 21.59 20.08 18.26 19.13 23.88 20.27 11.57 10.65 11.29 18.02 22.10 22.78 23.98 24.58 26.31 26.42 24.18 22.88 22.22 22.80 22.73 23.26 18.32 13.04 12.98 14.02 14.59 15.82 21.02 18.12 13.96 13.97 14.65 16.05 16.40 14.24 15.66 15.44 16.70 17.48 18.19 19.69 21.36 21.82 22.18 23.57 21.56
25.82 28.38 23.38 17.35 19.49 21.26 19.92 19.22 19.66 24.32 27.23 22.63 16.12 15.47 19.05 20.08 19.29 21.68 21.57 22.72 22.92 21.31 18.50 19.53 15.78 14.31 14.37 14.84 17.08 17.97 10.69 6.75 6.74 2.75 -0.26 0.91 6.20 6.90 12.22 12.62 11.73 10.80 11.55 12.93 13.91 15.79 16.72 17.70 20.21 19.33 20.26 21.02 19.85 15.44
24.95 28.49 20.61 17.44 14.93 18.23 26.06 26.95 28.51 28.74 25.54 27.18 24.94 21.36 19.51 17.87 17.68 18.77 18.82 15.95 15.08 14.28 16.43 17.14 15.69 7.90 4.80 4.59 5.25 7.08 13.74 9.56 3.17 3.23 0.35 -0.19 7.00 9.51 10.02 9.54 9.44 8.82 9.77 10.40 9.22 10.27 13.82 16.48 18.41 20.18 17.27 14.92 15.65 12.38
26.31 27.22 25.05 22.99 24.71 26.13 27.59 27.69 28.14 27.81 27.93 28.36 28.10 23.09 15.41 12.48 12.35 13.22 13.67 16.33 15.95 7.95 8.11 6.11 5.62 5.59 2.96 3.74 6.96 5.39 2.05 2.32 5.04 9.56 5.96 3.34 6.76 1.01 2.85 6.75 6.71 7.88 8.71 6.54 5.55 7.04 7.93 13.45 15.20 14.01 11.30 10.03 9.33 7.37
26.06 23.89 23.89 19.86 23.44 26.24 27.59 25.56 25.93 25.34 20.11 24.93 22.94 21.49 16.48 15.38 7.01 8.05 6.99 10.62 7.36 4.54 4.48 2.97 2.13 4.80 3.08 7.80 3.83 2.43 12.58 7.31 3.82 3.46 5.54 7.21 4.41 4.74 4.66 3.43 6.02 6.66 6.74 0.38 4.15 5.02 7.47 10.78 10.05 8.79 7.93 5.25 4.18 3.11
21.61 18.64 18.64 14.37 13.60 15.33 22.32 14.51 13.88 12.89 13.35 12.00 16.79 16.07 9.96 7.25 3.20 7.12 11.59 12.09 5.11 2.17 1.20 1.02 1.16 1.68 9.17 3.54 -0.01 5.31 1.69 0.17 2.73 11.91 9.92 10.78 7.23 3.53 1.15 4.20 7.24 6.45 2.41 0.96 2.97 6.93 6.92 6.83 4.51 3.29 2.05 0.66 -0.74 -1.81
MSLP
1007.13 1008.14 1009.04 1009.84 1010.63 1011.25 1011.76 1012.21 1012.56 1012.77 1012.95 1013.02 1012.94 1012.74 1012.47 1012.33 1012.01 1011.70 1012.21 1011.78 1012.12 1013.43 1013.52 1013.24 1013.01 1012.90 1013.38 1014.42 1015.87 1016.66 1017.70 1018.19 1019.76 1021.61 1022.86 1023.34 1023.05 1022.14 1021.99 1021.82 1022.32 1023.23 1024.35 1024.92 1025.01 1024.35 1021.75 1019.11 1019.08 1019.65 1020.03 1020.37 1020.89 1021.57
1007.42 1008.28 1009.22 1010.06 1010.74 1011.33 1011.92 1012.40 1012.74 1012.95 1013.17 1013.21 1013.18 1012.94 1012.69 1012.49 1012.20 1011.87 1012.40 1011.88 1011.93 1013.18 1014.11 1013.83 1013.88 1013.84 1013.77 1014.12 1014.72 1015.87 1016.64 1017.46 1018.63 1020.77 1022.14 1022.71 1023.12 1022.79 1022.56 1021.91 1020.99 1021.72 1021.26 1021.77 1022.27 1021.13 1019.33 1018.51 1018.61 1018.93 1019.27 1020.29 1021.17 1021.59
1007.81 1008.61 1009.54 1010.22 1010.85 1011.53 1012.06 1012.52 1012.85 1013.09 1013.30 1013.37 1013.39 1013.20 1012.96 1012.77 1012.43 1012.29 1012.51 1012.58 1012.64 1013.96 1014.48 1014.27 1014.35 1014.31 1013.96 1014.02 1013.93 1015.12 1016.23 1016.47 1017.82 1018.64 1021.17 1022.55 1023.16 1022.73 1022.52 1021.50 1020.35 1019.44 1019.24 1019.90 1020.05 1019.09 1018.58 1018.69 1018.89 1019.21 1019.79 1020.44 1021.03 1021.33
1008.39 1009.11 1009.85 1010.53 1011.16 1011.73 1012.22 1012.69 1013.02 1013.26 1013.49 1013.65 1013.69 1013.61 1013.34 1013.09 1012.75 1012.44 1012.88 1013.08 1013.57 1015.04 1015.65 1015.32 1014.56 1014.67 1014.57 1014.30 1014.24 1014.46 1015.19 1016.09 1017.59 1019.22 1021.28 1022.17 1022.35 1021.33 1021.54 1020.45 1020.04 1019.01 1018.54 1018.63 1018.93 1018.50 1018.37 1018.99 1019.08 1019.57 1020.19 1020.67 1021.05 1021.22
1009.63 1010.01 1010.41 1010.95 1011.50 1012.00 1012.45 1012.84 1013.18 1013.48 1013.68 1013.88 1013.98 1013.97 1013.73 1013.46 1013.15 1012.93 1013.14 1013.48 1013.57 1014.42 1015.87 1015.93 1015.24 1015.29 1015.01 1014.96 1015.00 1015.08 1015.71 1016.78 1018.41 1020.25 1021.48 1021.70 1021.00 1020.74 1020.59 1020.35 1019.76 1018.21 1017.95 1018.14 1018.14 1018.14 1018.41 1019.37 1019.59 1019.83 1020.35 1020.78 1021.07 1021.40
1010.80 1011.21 1011.34 1011.61 1011.90 1012.26 1012.65 1013.08 1013.41 1013.69 1013.99 1014.19 1014.29 1014.30 1014.05 1013.78 1013.49 1013.54 1014.05 1014.14 1014.16 1014.01 1016.01 1016.88 1016.44 1016.03 1015.68 1015.46 1015.64 1016.02 1016.47 1017.20 1018.25 1019.85 1020.76 1020.49 1019.32 1019.66 1020.45 1020.09 1018.18 1017.37 1017.17 1017.09 1017.73 1018.12 1018.39 1019.17 1019.74 1019.97 1020.50 1020.78 1021.14 1021.39
1011.93 1012.13 1012.16 1012.21 1012.35 1012.73 1013.01 1013.31 1013.61 1013.85 1014.15 1014.36 1014.47 1014.45 1014.37 1014.05 1013.88 1014.60 1014.96 1015.19 1014.76 1014.67 1016.25 1017.71 1017.59 1017.28 1016.80 1016.53 1017.18 1017.36 1017.58 1018.21 1018.73 1019.58 1020.35 1020.55 1019.84 1019.41 1019.81 1019.18 1017.76 1017.04 1016.79 1017.34 1017.64 1018.26 1019.21 1019.41 1019.78 1020.06 1020.28 1020.76 1021.23 1021.94
1012.86 1012.94 1012.80 1012.79 1013.03 1013.25 1013.33 1013.48 1013.66 1013.93 1014.28 1014.60 1014.70 1014.71 1014.64 1014.75 1014.97 1015.29 1015.23 1014.95 1014.87 1015.34 1016.52 1018.31 1018.72 1018.43 1017.73 1018.17 1018.96 1018.97 1019.23 1019.29 1019.42 1019.98 1020.44 1020.47 1019.94 1019.87 1019.16 1017.47 1016.64 1016.32 1016.44 1017.22 1017.79 1018.14 1018.78 1019.42 1019.80 1020.23 1020.65 1021.18 1021.84 1022.49
1013.76 1013.65 1013.49 1013.51 1013.62 1013.66 1013.66 1013.73 1013.80 1014.09 1014.41 1014.73 1014.89 1014.85 1014.82 1015.19 1015.85 1016.08 1015.54 1015.20 1014.91 1015.91 1017.35 1018.68 1019.04 1018.93 1018.57 1019.52 1019.92 1020.02 1019.94 1020.49 1020.25 1020.39 1020.56 1020.50 1020.15 1019.56 1017.66 1017.02 1016.41 1016.07 1016.40 1017.24 1017.91 1018.46 1019.17 1019.77 1020.39 1020.84 1021.28 1021.87 1022.49 1023.21
1014.38 1014.40 1014.27 1014.21 1014.16 1013.98 1013.91 1013.81 1013.93 1014.19 1014.55 1014.92 1015.22 1015.67 1016.40 1016.77 1016.67 1016.12 1015.77 1015.89 1015.98 1016.35 1017.48 1018.65 1018.65 1019.15 1019.21 1020.04 1020.61 1021.08 1021.06 1021.02 1020.81 1020.59 1020.58 1020.27 1019.13 1018.14 1017.23 1016.73 1016.39 1016.25 1016.43 1016.91 1017.67 1018.71 1019.54 1020.25 1020.83 1021.36 1021.99 1022.59 1023.20 1023.74
1015.22 1015.03 1014.76 1014.71 1014.53 1014.26 1014.13 1014.15 1014.20 1014.60 1014.84 1015.44 1016.37 1016.95 1017.35 1017.03 1016.88 1017.22 1017.31 1017.55 1017.75 1018.18 1018.12 1018.38 1018.62 1018.78 1019.07 1020.00 1020.76 1021.06 1021.24 1021.18 1020.97 1020.47 1020.56 1019.75 1018.81 1017.63 1016.62 1016.86 1016.87 1016.96 1017.16 1017.53 1018.30 1019.27 1020.05 1020.66 1021.45 1022.19 1022.89 1023.33 1023.67 1023.95
1015.52 1015.37 1015.21 1015.16 1015.04 1014.85 1014.79 1014.74 1014.83 1015.23 1015.91 1016.21 1016.48 1017.27 1017.52 1017.87 1018.17 1018.38 1018.35 1018.44 1018.41 1018.89 1019.02 1018.97 1019.09 1019.07 1019.41 1019.36 1020.29 1021.05 1021.11 1021.15 1020.58 1020.24 1020.42 1019.39 1018.30 1017.49 1017.25 1017.57 1017.90 1017.99 1018.33 1018.95 1019.59 1020.26 1020.88 1021.64 1022.25 1022.81 1023.20 1023.54 1023.99 1024.22
1015.99 1015.84 1015.74 1015.63 1015.69 1015.65 1015.52 1015.48 1015.55 1016.04 1016.16 1016.61 1017.23 1018.20 1018.43 1019.29 1019.08 1018.79 1018.75 1019.01 1019.28 1019.45 1019.63 1019.70 1019.87 1019.89 1019.87 1019.97 1020.41 1020.73 1020.74 1020.54 1020.24 1020.38 1019.87 1019.05 1018.42 1018.15 1018.22 1018.76 1019.28 1019.58 1019.93 1020.42 1020.98 1021.47 1022.03 1022.52 1022.90 1023.34 1023.61 1023.70 1023.95 1024.13
1016.52 1016.41 1016.31 1016.15 1016.21 1016.22 1016.10 1015.96 1015.90 1015.94 1016.33 1017.81 1018.64 1019.33 1019.61 1019.81 1019.75 1019.71 1019.81 1019.96 1020.13 1020.04 1020.05 1020.14 1020.26 1020.31 1020.39 1020.39 1020.39 1020.31 1020.40 1020.41 1020.37 1020.29 1020.20 1019.59 1019.14 1018.99 1019.01 1019.56 1020.16 1020.92 1021.25 1021.58 1021.97 1022.27 1022.59 1022.87 1023.19 1023.59 1023.65 1023.62 1023.96 1023.92
1017.07 1016.97 1016.91 1016.94 1016.91 1016.78 1016.60 1016.48 1016.27 1016.14 1017.23 1018.58 1018.93 1019.63 1020.10 1020.41 1020.39 1020.42 1020.52 1020.54 1020.59 1020.38 1020.38 1020.57 1020.71 1020.74 1020.76 1020.68 1020.55 1020.66 1020.74 1020.51 1020.46 1020.64 1020.78 1020.52 1020.12 1019.90 1020.21 1020.57 1021.07 1021.69 1022.04 1022.15 1022.26 1022.59 1022.82 1023.01 1023.21 1023.32 1023.17 1023.14 1023.20 1023.25
1017.41 1017.30 1017.70 1017.64 1017.44 1017.18 1017.04 1016.86 1017.01 1017.22 1018.13 1019.10 1019.70 1020.11 1020.32 1020.52 1020.88 1020.89 1020.86 1020.84 1020.84 1020.87 1020.82 1020.80 1020.86 1020.90 1021.06 1020.98 1020.88 1020.62 1020.69 1020.77 1021.11 1021.29 1021.23 1021.06 1020.85 1020.76 1020.90 1021.28 1021.63 1021.92 1022.19 1022.39 1022.52 1022.65 1022.74 1022.80 1022.85 1022.79 1022.64 1022.65 1022.57 1022.64
1017.54 1017.76 1017.97 1017.84 1017.72 1017.59 1017.37 1017.64 1017.97 1018.43 1019.20 1019.69 1020.21 1020.25 1020.63 1020.79 1021.07 1021.23 1021.23 1021.33 1021.01 1021.03 1021.17 1021.09 1021.18 1021.48 1021.39 1021.17 1021.13 1021.07 1021.18 1021.60 1021.59 1021.48 1021.20 1021.16 1021.34 1021.43 1021.49 1021.59 1021.80 1022.09 1022.31 1022.43 1022.49 1022.47 1022.43 1022.29 1022.36 1022.71 1022.60 1022.14 1021.94 1021.85
1018.06 1018.31 1018.25 1018.12 1018.10 1017.96 1018.14 1018.20 1018.80 1019.21 1019.86 1020.24 1020.50 1020.93 1021.07 1021.32 1021.63 1021.67 1021.83 1021.69 1021.48 1021.34 1021.35 1021.49 1021.36 1021.62 1021.58 1021.53 1021.42 1021.56 1021.54 1021.47 1021.27 1021.48 1021.55 1021.51 1021.47 1021.54 1021.65 1021.89 1022.04 1022.20 1022.23 1022.24 1022.20 1022.13 1022.13 1022.30 1022.28 1022.20 1021.96 1021.52 1021.31 1021.14
1018.84 1018.54 1018.53 1018.56 1018.60 1018.65 1019.10 1019.30 1019.13 1019.93 1020.39 1020.84 1021.04 1021.23 1021.58 1022.00 1022.18 1022.22 1022.14 1021.85 1021.63 1021.59 1021.67 1021.77 1021.94 1021.85 1021.60 1021.52 1021.48 1021.57 1021.67 1021.81 1021.91 1021.83 1021.87 1021.76 1021.76 1021.79 1021.79 1021.87 1021.99 1022.09 1022.17 1022.12 1022.03 1021.94 1021.94 1021.74 1021.65 1021.49 1021.23 1021.00 1020.98 1020.50
1019.08 1019.21 1019.17 1019.09 1019.09 1019.32 1019.77 1019.88 1019.50 1019.92 1020.43 1020.92 1021.10 1021.50 1022.09 1022.50 1022.68 1022.62 1022.45 1022.25 1022.06 1022.13 1022.22 1022.17 1022.06 1021.70 1021.77 1021.65 1021.45 1021.66 1021.71 1021.72 1021.94 1022.25 1022.33 1022.26 1022.11 1022.04 1021.95 1021.94 1021.92 1022.05 1022.06 1021.91 1021.77 1021.63 1021.68 1021.43 1021.08 1020.83 1020.61 1020.56 1020.88 1020.61
1019.51 1019.97 1019.83 1019.61 1019.80 1019.56 1019.99 1019.93 1020.10 1020.17 1020.51 1020.95 1021.48 1021.78 1022.55 1022.68 1022.73 1022.72 1022.67 1022.44 1022.45 1022.35 1022.20 1021.86 1021.81 1021.43 1021.19 1021.28 1021.38 1021.55 1021.74 1021.91 1022.25 1022.50 1022.82 1022.74 1022.51 1022.42 1022.25 1022.09 1021.86 1021.96 1022.07 1021.94 1021.80 1021.58 1021.42 1021.15 1020.62 1020.28 1020.27 1020.16 1019.94 1019.72
1020.40 1020.31 1020.58 1020.67 1020.79 1020.69 1020.57 1020.32 1020.44 1020.39 1020.95 1021.22 1021.60 1021.91 1022.62 1022.88 1023.03 1023.09 1023.04 1023.00 1022.78 1022.22 1021.78 1021.50 1021.38 1021.48 1021.57 1021.69 1021.68 1021.78 1021.99 1022.24 1022.40 1022.66 1022.61 1022.83 1023.06 1022.80 1022.52 1022.30 1022.28 1022.15 1021.99 1021.75 1021.52 1021.23 1020.78 1020.32 1020.13 1020.12 1020.00 1019.74 1019.47 1019.26
1020.60 1020.85 1021.15 1021.17 1021.15 1021.11 1021.07 1020.56 1020.73 1020.88 1021.30 1021.54 1021.72 1022.25 1022.64 1022.89 1023.05 1023.39 1023.38 1023.01 1022.55 1021.82 1021.76 1021.77 1021.77 1021.65 1021.80 1021.81 1021.82 1022.22 1022.48 1022.74 1023.02 1023.33 1023.40 1023.39 1023.22 1022.95 1022.89 1022.72 1022.52 1022.61 1022.24 1021.78 1021.42 1021.10 1020.73 1020.25 1019.93 1019.68 1019.50 1019.33 1019.01 1018.75
1020.88 1021.11 1021.12 1021.02 1020.85 1021.12 1021.07 1020.87 1020.86 1021.12 1021.36 1021.79 1022.21 1022.56 1022.82 1023.09 1023.58 1023.71 1023.78 1023.19 1023.30 1022.92 1022.86 1022.83 1022.37 1022.33 1022.35 1022.72 1023.50 1023.94 1024.16 1024.07 1024.16 1024.19 1024.20 1024.14 1024.13 1024.06 1024.05 1023.76 1023.42 1023.18 1022.93 1022.44 1021.97 1021.53 1020.93 1020.26 1019.50 1019.13 1019.02 1018.79 1018.44 1018.40
1021.28 1021.42 1021.48 1021.06 1020.95 1021.11 1021.08 1021.03 1021.03 1021.36 1021.60 1022.00 1022.49 1022.89 1023.22 1023.53 1024.01 1023.99 1023.83 1023.79 1024.08 1024.04 1024.01 1023.99 1023.69 1023.70 1024.02 1024.36 1024.72 1025.23 1025.42 1025.42 1025.60 1025.68 1025.37 1025.31 1025.18 1024.83 1024.51 1024.21 1023.97 1024.01 1023.92 1023.42 1022.82 1022.20 1021.52 1020.75 1020.04 1019.36 1018.77 1018.34 1018.14 1018.27
1020.69 1021.04 1021.25 1020.69 1020.77 1020.74 1020.61 1020.78 1020.78 1021.11 1021.57 1022.13 1022.67 1023.10 1023.34 1023.86 1024.35 1024.50 1024.24 1024.73 1024.90 1025.20 1025.31 1025.25 1025.24 1025.16 1025.40 1025.62 1025.73 1026.04 1026.36 1026.44 1026.51 1026.45 1026.20 1026.04 1025.80 1025.89 1025.89 1025.64 1025.37 1025.06 1025.06 1024.67 1024.02 1023.15 1022.33 1021.44 1020.58 1019.69 1018.81 1018.43 1018.10 1017.98
1020.46 1020.64 1020.61 1020.50 1020.54 1020.52 1020.67 1020.74 1020.78 1021.07 1021.52 1021.92 1022.66 1023.49 1024.04 1024.53 1024.65 1024.91 1025.41 1025.78 1025.88 1026.11 1026.16 1026.21 1026.34 1026.50 1026.68 1026.83 1026.98 1027.17 1027.40 1027.47 1027.53 1027.33 1026.83 1026.63 1026.82 1027.08 1027.23 1027.11 1026.67 1026.46 1025.95 1025.31 1024.73 1024.00 1023.02 1022.04 1021.17 1020.29 1019.64 1019.08 1018.61 1018.36
1020.19 1020.28 1020.46 1020.66 1020.59 1020.61 1020.81 1020.98 1021.28 1021.26 1021.34 1021.46 1022.55 1023.53 1024.19 1024.58 1025.43 1025.97 1026.37 1026.79 1026.80 1026.97 1027.00 1027.30 1027.47 1027.54 1027.68 1027.75 1027.77 1028.10 1028.33 1028.23 1028.07 1027.76 1027.18 1027.38 1027.50 1027.69 1027.84 1027.74 1027.51 1027.03 1026.50 1025.81 1025.21 1024.38 1023.56 1022.64 1021.52 1020.55 1019.86 1019.46 1019.08 1019.08
1020.45 1020.49 1020.74 1021.01 1020.97 1020.97 1021.03 1021.02 1021.02 1021.00 1021.16 1021.37 1022.62 1023.76 1024.92 1026.01 1026.93 1027.06 1027.48 1027.63 1027.70 1027.75 1028.06 1028.27 1028.48 1028.48 1028.67 1028.60 1028.63 1028.78 1028.98 1029.36 1029.31 1029.36 1029.28 1029.12 1028.69 1028.48 1028.39 1028.15 1027.87 1027.42 1026.81 1025.99 1025.28 1024.62 1023.69 1022.78 1021.63 1020.84 1020.04 1019.69 1019.78 1020.26
1020.92 1020.85 1020.97 1021.15 1021.29 1021.29 1021.62 1021.55 1021.58 1021.78 1021.59 1021.96 1022.58 1024.12 1025.75 1027.31 1028.21 1028.27 1028.46 1028.62 1028.74 1028.94 1029.04 1029.22 1029.46 1029.65 1029.97 1030.03 1030.03 1029.86 1029.70 1029.77 1030.03 1030.24 1030.23 1030.00 1029.62 1029.24 1028.91 1028.60 1028.18 1027.72 1027.09 1026.38 1025.69 1024.70 1023.62 1022.68 1021.78 1020.96 1020.62 1020.67 1020.75 1021.28
1021.31 1021.10 1021.20 1021.37 1021.52 1021.90 1022.10 1022.26 1022.26 1022.33 1022.36 1022.59 1022.97 1024.28 1026.42 1028.05 1029.10 1029.44 1029.51 1029.43 1029.50 1029.78 1030.07 1030.43 1030.50 1030.61 1030.65 1030.70 1030.63 1030.52 1030.55 1030.28 1030.26 1030.28 1030.16 1029.86 1029.63 1029.51 1029.29 1028.94 1028.47 1027.86 1027.22 1026.77 1026.15 1025.26 1024.45 1023.27 1022.51 1022.14 1022.08 1022.14 1022.26 1022.54
1021.59 1021.77 1021.70 1021.85 1022.15 1022.32 1022.31 1022.48 1022.52 1022.78 1022.86 1023.35 1023.98 1025.16 1026.76 1027.66 1029.21 1030.09 1030.58 1030.20 1030.34 1030.93 1031.12 1031.24 1031.44 1031.39 1030.94 1030.72 1030.79 1030.88 1030.99 1030.86 1030.71 1030.53 1029.84 1029.69 1029.72 1029.64 1029.31 1028.93 1028.32 1027.77 1027.27 1026.87 1026.37 1025.58 1024.78 1024.07 1023.73 1023.54 1023.42 1023.59 1023.72 1023.90
1022.44 1022.54 1022.70 1022.84 1022.99 1022.94 1023.09 1023.31 1023.32 1023.61 1023.70 1024.19 1025.05 1025.92 1027.35 1028.23 1029.59 1030.35 1030.51 1030.50 1030.94 1031.28 1031.86 1031.81 1031.56 1031.30 1031.06 1031.04 1031.00 1031.42 1031.28 1031.21 1030.76 1030.02 1029.81 1029.55 1029.56 1029.41 1029.13 1028.55 1027.96 1027.65 1027.60 1027.21 1026.60 1025.80 1025.36 1024.98 1024.88 1024.83 1024.87 1024.97 1025.08 1025.13
Wind_Speed
21 19 17 15 13 12 10 8 7 6 6 6 7 8 10 10 11 4 1 2 4 4 3 7 8 5 4 5 6 5 6 5 4 4 4 4 3 5 2 7 8 8 8 4 3 3 9 7 4 9 7 4 7 6
21 19 17 15 13 12 10 9 8 7 6 6 7 8 10 11 11 4 3 2 2 6 3 3 3 6 5 2 6 4 7 4 5 5 1 3 1 0 2 3 4 2 9 8 10 9 8 4 7 4 5 6 4 6
18 19 16 14 13 12 11 9 7 7 6 6 7 8 10 12 13 6 2 3 4 4 4 4 4 5 6 5 0 6 3 5 4 4 4 3 4 4 4 6 0 3 6 4 5 6 6 7 6 7 7 8 7 6
18 15 15 14 13 12 10 9 7 6 6 5 7 9 10 12 14 8 4 3 5 5 6 4 2 4 5 7 5 3 6 7 7 4 4 4 3 5 5 5 5 6 3 1 3 3 4 8 9 9 8 7 5 4
23 19 15 12 12 11 10 9 7 6 6 6 7 8 10 11 12 4 3 3 3 5 5 2 2 3 3 5 4 6 7 6 3 3 3 4 3 3 2 3 3 3 5 4 7 4 5 4 6 8 7 5 6 4
21 19 18 16 13 10 9 8 7 6 7 7 7 8 10 11 10 2 3 4 5 3 6 2 3 4 5 3 3 2 2 2 3 5 4 3 4 5 3 4 5 5 6 4 4 4 8 8 6 6 7 7 5 6
18 17 16 16 16 13 9 7 6 6 7 6 7 8 9 11 4 3 4 2 6 2 5 3 2 5 4 3 4 4 5 2 3 2 1 3 3 4 3 5 6 8 6 8 11 10 5 5 5 6 5 7 6 8
16 15 14 14 13 12 11 8 6 6 7 7 7 5 5 6 6 3 2 4 4 4 5 4 2 4 4 2 3 3 3 3 3 2 2 2 3 3 4 7 8 9 5 8 7 7 6 6 5 6 5 7 8 7
14 14 14 13 12 11 11 7 6 8 9 9 7 4 3 4 3 2 10 9 1 4 4 3 5 4 2 2 2 4 2 1 2 1 2 2 2 6 7 6 6 5 8 10 7 8 8 6 4 7 8 8 7 6
13 13 13 12 11 10 9 6 8 9 12 10 4 3 1 2 10 7 3 4 5 3 3 3 2 2 4 1 1 3 2 2 2 4 2 1 5 5 8 1 3 6 10 12 8 8 7 7 7 7 7 6 5 2
11 12 12 12 13 11 10 10 12 13 6 3 3 2 2 7 2 4 0 2 1 2 1 2 4 5 2 4 3 2 2 1 3 5 5 3 3 6 4 5 5 6 7 10 13 11 9 8 6 6 5 4 1 2
11 11 12 12 15 15 12 7 6 5 2 4 5 3 3 4 3 3 4 1 1 3 3 1 1 2 1 1 4 2 4 2 6 4 2 3 4 4 10 9 8 11 13 14 12 10 9 8 6 5 3 0 2 3
11 11 10 10 13 14 13 14 14 12 4 3 5 5 3 3 1 3 5 1 1 1 1 0 1 2 2 3 3 3 5 5 1 3 4 3 3 5 6 11 11 12 12 11 10 8 7 4 3 1 3 4 4 5
9 10 11 10 9 11 11 12 9 3 5 4 3 4 2 2 2 2 1 1 1 1 1 2 2 2 1 2 2 4 1 2 3 3 4 1 5 4 5 8 10 7 8 7 4 2 1 2 4 4 5 4 3 5
6 6 8 11 9 8 9 10 10 2 4 3 2 3 2 1 1 0 0 1 3 1 2 2 2 1 1 2 1 3 2 1 1 1 2 3 2 8 8 9 8 6 4 2 1 1 4 5 4 6 6 6 6 5
6 3 4 5 6 7 6 6 5 3 4 3 3 3 2 2 1 2 2 2 1 0 1 2 2 1 2 1 1 0 2 1 3 1 2 2 4 5 6 6 6 5 3 0 3 3 4 4 5 6 4 4 5 6
5 3 5 5 5 6 8 4 3 4 4 2 2 2 1 3 3 1 1 0 2 2 2 1 2 1 0 1 1 2 3 2 3 1 1 4 4 4 4 4 3 2 3 4 4 4 4 4 3 2 6 8 7 7
4 2 5 2 4 4 3 3 3 3 4 2 2 2 2 2 2 2 2 3 2 1 1 1 2 2 1 1 1 0 2 1 1 2 2 2 3 3 3 1 2 3 4 5 4 5 4 3 5 6 7 8 7 7
4 4 1 5 7 3 2 4 3 3 3 2 2 2 3 2 2 1 1 2 1 1 2 2 2 1 1 1 2 1 1 2 2 2 2 2 3 4 5 3 3 4 5 5 4 3 4 6 5 5 6 4 5 5
14 12 10 5 6 2 3 2 2 3 2 2 2 3 3 2 0 1 1 2 1 1 2 1 3 2 2 1 1 2 1 1 3 2 2 3 2 2 2 3 3 4 4 5 5 4 3 4 3 4 4 2 2 4
6 4 9 5 4 3 1 1 2 1 2 3 3 3 2 0 1 1 1 2 2 1 2 3 3 3 4 3 2 2 2 2 1 3 3 2 3 1 3 4 5 2 2 3 3 5 5 5 7 4 3 3 4 5
2 6 2 3 2 4 2 2 2 1 3 2 2 3 3 2 2 1 1 1 2 3 2 1 1 2 3 2 1 2 1 3 2 2 4 2 2 3 3 3 1 3 3 4 4 6 6 5 3 3 3 7 6 4
5 3 2 1 2 2 3 2 2 4 4 3 1 2 1 2 1 1 2 2 4 1 2 3 2 3 4 2 3 7 6 3 3 5 6 5 4 5 6 6 4 5 6 6 3 5 5 3 4 4 4 8 7 6
1 1 1 2 2 2 1 2 1 2 3 3 3 3 3 3 2 0 2 2 2 4 6 8 4 2 3 8 8 7 8 6 6 6 7 7 6 7 7 7 6 6 7 8 8 8 9 10 9 3 6 9 7 4
3 1 0 2 1 4 4 4 4 2 3 4 3 1 2 2 2 2 3 2 3 6 7 7 7 8 6 4 5 6 9 8 6 5 5 6 6 6 6 5 5 6 9 9 10 10 9 9 10 9 9 9 5 5
3 3 2 4 3 3 4 3 4 4 3 3 2 2 2 3 2 4 2 2 2 4 4 4 4 5 6 6 5 6 6 6 5 3 3 5 5 6 6 7 7 7 9 9 10 11 12 11 11 13 9 6 6 4
3 3 2 1 1 2 2 2 3 3 2 4 4 3 3 3 4 3 3 4 3 3 3 4 5 5 5 5 4 4 5 5 4 5 5 2 7 7 7 7 9 8 10 10 11 12 13 12 13 8 9 8 6 4
1 1 3 2 0 0 3 2 2 3 2 1 4 2 7 5 2 3 3 3 4 3 4 6 4 3 3 3 3 3 3 4 5 5 5 4 6 5 8 6 5 12 9 9 10 11 12 12 12 11 7 7 4 4
2 2 4 2 2 0 1 2 2 1 2 3 4 1 3 4 3 3 3 3 2 3 4 4 4 3 4 4 4 4 3 3 7 8 6 4 6 6 7 7 8 8 9 10 14 14 16 15 13 11 13 3 6 7
1 2 2 1 2 1 2 3 2 3 3 2 4 4 4 3 3 4 3 3 3 2 2 3 2 4 2 3 3 5 2 2 3 3 1 3 6 6 7 9 9 10 9 9 11 14 16 13 11 8 5 5 5 6
1 1 2 2 2 2 2 1 1 0 2 2 2 4 4 4 2 3 4 4 3 4 5 4 3 3 4 4 3 3 4 3 4 3 1 3 3 3 4 7 8 8 8 9 10 11 12 10 7 6 7 7 9 7
2 4 1 1 2 2 1 1 1 1 2 2 2 3 4 3 3 1 3 3 4 4 3 4 4 3 3 3 3 2 7 3 3 4 5 2 2 3 4 5 6 7 7 5 10 10 12 6 6 7 6 8 8 8
2 1 1 0 1 1 1 1 2 1 1 1 3 3 3 3 3 2 1 2 4 3 2 1 2 3 2 2 2 4 4 3 7 10 9 6 5 6 4 5 6 6 5 7 9 9 9 7 7 8 8 7 7 7
Wind_Direction
140 141 140 141 144 145 144 135 129 114 90 58 34 24 17 11 9 32 234 0 101 97 356 18 5 50 78 98 134 202 56 333 48 85 133 218 148 240 135 170 171 162 154 196 180 207 274 223 142 152 203 158 135 117
142 138 140 142 142 141 138 134 126 113 93 66 40 25 15 8 7 2 67 319 32 85 168 81 100 48 58 86 135 147 173 155 168 102 110 122 167 294 121 233 169 173 183 179 177 211 226 205 182 132 130 123 130 132
136 137 138 137 137 139 139 136 130 117 94 61 39 22 15 8 6 23 86 1 47 78 358 48 29 15 16 2 27 120 317 168 112 135 133 150 198 136 168 241 236 273 174 189 106 246 230 134 92 105 109 121 133 132
84 120 128 131 133 135 134 133 130 122 102 73 45 24 12 7 4 3 79 324 79 83 105 290 313 47 331 352 37 61 130 64 94 77 115 144 180 178 208 222 154 211 347 225 257 291 63 54 115 124 117 121 137 187
63 67 86 110 119 124 125 127 127 125 99 73 49 28 12 4 0 360 74 39 60 120 162 261 28 15 10 344 77 72 95 96 96 78 102 211 227 83 300 69 234 205 199 164 233 223 150 135 131 127 139 162 184 185
64 62 68 76 89 108 113 116 120 122 109 87 61 33 9 353 346 50 49 3 5 34 90 62 276 14 8 316 115 113 106 100 119 133 203 256 257 119 150 213 247 216 244 232 173 97 102 125 131 142 156 175 149 93
68 59 61 67 70 73 94 118 123 120 119 97 71 42 12 356 40 74 159 243 333 36 85 51 316 335 325 333 30 25 30 46 98 141 172 179 285 110 151 219 225 230 234 126 131 120 106 160 163 186 152 127 114 85
66 60 57 59 67 65 66 77 126 128 124 118 90 55 27 70 99 48 344 327 336 81 75 121 236 3 347 7 40 344 32 1 3 133 16 193 344 57 256 237 229 224 194 119 128 81 128 140 105 133 106 86 74 64
60 53 50 61 64 59 49 64 96 138 128 118 100 40 27 25 38 344 327 320 3 116 132 110 155 214 53 62 63 11 54 39 294 141 229 85 198 225 235 245 251 217 161 144 133 129 132 145 156 93 86 72 73 58
57 53 51 56 48 40 33 67 106 127 129 124 51 62 3 307 321 327 10 31 11 334 72 157 153 172 99 61 15 97 20 209 205 242 104 182 255 301 276 300 45 115 133 147 134 133 125 95 89 81 82 83 88 78
57 54 52 53 39 42 61 86 95 107 78 64 83 95 265 305 34 27 43 123 200 323 212 199 176 145 245 129 169 173 180 175 232 239 173 229 250 244 246 135 95 80 96 83 88 93 87 92 87 84 97 105 91 320
48 47 48 61 56 60 65 55 65 61 49 91 105 90 48 35 49 146 190 356 163 226 9 129 33 78 13 96 105 205 178 158 239 136 166 252 271 75 93 93 71 82 83 80 84 85 75 75 82 102 116 261 273 276
46 43 46 73 62 58 58 68 81 116 126 61 49 56 28 10 133 207 179 201 120 36 286 316 51 99 31 52 89 152 183 215 82 160 223 233 142 97 100 89 79 75 69 63 59 61 64 78 89 128 251 259 250 274
49 54 52 50 70 50 42 37 38 130 63 66 86 89 355 129 49 42 36 47 280 88 66 29 64 101 36 85 127 176 174 99 220 190 232 327 75 123 99 110 109 94 96 98 86 62 18 199 234 240 226 239 233 266
48 78 77 45 54 49 37 31 10 16 87 78 71 87 77 97 7 58 198 82 343 28 69 64 67 56 45 92 8 100 128 234 319 98 25 290 329 101 94 99 107 116 114 104 123 236 243 247 236 254 256 249 243 245
11 17 63 83 55 37 27 32 23 30 42 85 68 106 121 113 43 13 16 59 124 132 350 63 93 101 53 45 229 331 167 82 54 192 216 131 85 95 103 110 116 124 125 281 277 261 258 246 242 257 266 265 255 237
335 66 141 94 79 24 33 59 17 48 110 76 73 31 70 87 119 96 118 287 305 59 70 88 62 78 244 64 46 18 47 129 240 319 147 138 135 121 105 79 49 324 279 270 265 273 275 274 287 288 288 281 264 251
43 151 162 148 346 24 15 21 71 54 71 75 92 76 62 26 84 45 21 349 28 63 28 140 137 85 96 136 214 243 182 183 75 144 141 131 115 104 107 148 299 311 307 302 282 291 279 281 280 265 262 264 270 268
44 55 148 46 10 56 46 342 55 90 50 101 68 64 66 77 48 12 335 330 27 174 87 29 84 176 215 182 171 215 0 133 185 218 183 198 198 235 264 270 282 280 284 279 285 271 262 256 246 254 259 262 262 264
69 50 46 33 350 60 49 315 34 93 131 168 88 66 66 63 124 293 317 356 43 74 35 122 210 223 150 239 135 137 174 152 103 43 327 330 335 357 264 248 251 278 274 277 278 267 290 295 278 266 266 271 323 300
50 15 27 37 339 20 123 225 25 91 127 100 116 111 93 281 120 133 113 334 38 204 247 219 193 214 151 153 127 95 36 56 51 146 203 322 303 319 294 293 288 286 263 265 262 277 265 254 269 267 269 267 259 231
76 60 58 26 50 341 50 312 148 216 62 128 122 122 121 167 165 183 178 193 235 245 223 193 324 54 59 52 53 132 116 63 19 325 313 314 323 314 302 269 4 292 278 262 259 268 269 263 285 302 309 299 284 257
92 57 68 86 137 174 248 4 124 145 135 173 69 98 156 164 151 52 223 231 238 262 73 59 76 77 100 117 74 39 36 42 29 41 25 5 344 341 350 342 340 325 320 314 291 295 294 277 259 255 282 291 282 268
87 88 117 227 168 118 296 171 171 79 96 159 166 195 117 163 154 122 241 212 43 5 33 4 351 1 39 58 67 47 27 25 29 21 13 7 2 352 348 335 338 332 341 339 341 334 319 300 279 268 292 291 276 252
147 145 258 204 159 179 156 170 174 125 148 197 107 123 170 111 152 202 214 98 60 35 22 11 14 41 61 55 59 56 40 34 22 356 348 15 337 328 328 323 336 46 7 351 341 330 324 333 331 312 291 276 258 273
197 143 237 158 196 194 177 145 166 174 131 143 138 120 147 134 118 236 83 88 53 50 27 17 14 33 42 41 36 27 22 23 15 355 321 344 2 32 15 2 355 348 358 343 336 331 327 329 324 324 323 313 295 308
182 187 206 209 276 69 69 25 22 93 143 164 153 153 123 155 220 104 112 20 59 30 40 54 40 30 23 29 23 42 45 21 2 329 314 50 69 47 28 2 351 349 336 336 335 329 324 321 327 328 330 327 329 30
113 131 170 202 151 284 140 131 170 170 200 175 93 160 164 181 113 59 60 46 29 6 74 65 43 29 39 4 38 60 32 9 351 343 348 48 56 46 15 350 349 345 327 328 329 324 322 321 313 315 311 312 313 62
36 24 75 15 314 76 162 155 195 41 338 106 138 142 93 58 14 54 59 36 14 45 52 58 18 15 18 15 28 59 54 43 37 24 14 319 339 337 353 345 342 338 330 325 326 325 320 319 322 313 297 39 62 65
38 322 83 77 91 83 53 353 49 7 358 52 113 99 95 86 35 6 39 38 50 39 38 52 59 61 28 37 3 1 32 65 84 100 350 318 321 324 339 337 335 331 323 330 327 321 320 323 325 334 35 41 45 77
264 268 88 57 83 68 62 31 321 47 31 58 51 72 99 122 100 16 28 347 75 48 44 27 30 40 42 2 351 2 324 325 25 44 328 270 293 316 318 329 321 318 321 329 323 319 317 321 335 4 39 45 51 65
28 20 81 88 89 115 58 9 355 287 181 176 148 105 135 138 93 48 323 4 53 61 39 51 42 338 319 302 18 350 21 355 350 325 304 321 332 325 304 299 311 311 310 318 319 319 311 348 10 20 37 46 49 52
132 127 125 108 330 189 87 58 267 286 47 86 61 83 77 78 114 163 267 81 127 129 96 40 318 306 1 22 23 35 358 324 327 340 343 5 348 317 311 312 316 327 343 325 322 326 1 10 38 34 34 39 40 41